Home > Weather > Bakersfield > Past weeks

Flag for USA Weather for the Past 2 Weeks in Bakersfield, California, USA

Now
72 °F

Sunny.


Feels Like: 76 °F
Forecast: 58 / 85 °F
Wind: 5 mph from South

Location: Meadows Field

Current Time: Apr 30, 2016 at 9:20:00 PM

Latest Report: Apr 30, 2016 at 7:54 PM


Visibility: 10 mi

Pressure: 29.78 "Hg

Humidity: 29%

Dew Point: 38 °F

Location of BakersfieldLocation

Historic Weather in Bakersfield — Graph

°F

Bakersfield Temperature Yesterday

Maximum temperature yesterday: 80 °F (at 3:54 PM)
Minimum temperature yesterday: 55 °F (at 4:54 AM)
Average temperature yesterday: 69 °F

High & Low Weather Summary for the Past Weeks

 TemperatureHumidityPressure
High91 °F (Apr 18, 3:54 PM)86% (Apr 27, 10:54 PM)30.19 "Hg (Apr 27, 10:54 PM)
Low48 °F (Apr 23, 5:54 AM)7% (Apr 17, 5:54 PM)29.73 "Hg (Apr 27, 6:54 PM)
Average66 °F39%29.94 "Hg
* Reported Apr 15 6:54 PM — Apr 30 6:54 PM, Bakersfield, Weather by CustomWeather, © 2016

Note: Actual official high and low records may vary slightly from our data, if they occured in-between our weather recording intervals... More about our weather records

Advertising

Bakersfield Weather History for the Previous 24 Hours

Scroll right to see more
 ConditionsComfort  
Time TempWeatherWind HumidityBarometerVisibility
6:54 PM
Sat, Apr 30
74 °FSunny.5 mph23%29.77 "Hg10 mi
5:54 PM75 °FSunny.5 mph23%29.77 "Hg10 mi
4:54 PM76 °FSunny.7 mph21%29.77 "Hg10 mi
3:54 PM76 °FSunny.9 mph24%29.78 "Hg10 mi
2:54 PM74 °FSunny.3 mph25%29.79 "Hg10 mi
1:54 PM71 °FSunny.6 mph29%29.82 "Hg10 mi
12:54 PM70 °FSunny.7 mph34%29.83 "Hg10 mi
11:54 AM66 °FSunny.5 mph39%29.85 "Hg10 mi
10:54 AM65 °FSunny.No wind42%29.85 "Hg10 mi
9:54 AM61 °FSunny.No wind52%29.86 "Hg10 mi
8:54 AM57 °FOvercast.7 mph64%29.88 "Hg10 mi
7:54 AM57 °FOvercast.6 mph69%29.87 "Hg10 mi
6:54 AM56 °FOvercast.No wind62%29.85 "Hg10 mi
5:54 AM56 °FOvercast.5 mph65%29.82 "Hg10 mi
4:54 AM57 °FOvercast.5 mph47%29.81 "Hg10 mi
3:54 AM57 °FOvercast.7 mph46%29.81 "Hg10 mi
2:54 AM58 °FOvercast.6 mph46%29.81 "Hg10 mi
1:54 AM59 °FClear.6 mph46%29.81 "Hg10 mi
12:54 AM60 °FClear.No wind46%29.81 "Hg10 mi
11:54 PM
Fri, Apr 29
63 °FPassing clouds.10 mph43%29.81 "Hg10 mi
10:54 PM65 °FClear.12 mph39%29.81 "Hg10 mi
9:54 PM67 °FClear.13 mph37%29.81 "Hg10 mi
Weather by CustomWeather, © 2016

See weather overviewHow to use our weather pages